STARLINK-32787, 62809

Orbit data source: Space-Track

STARLINK-32787, 62809 is a payload satellite owned by SpaceX/Seattle (US) in LEO that was launched on Fri, 24 Jan 2025 UTC via an FALCON 9 launch vehicle from the Air Force Western Test Range (AFWTR). Payload-class satellites include a variety of spacecraft equipped with specific instruments for various scientific and technological missions. These include communications satellites like Starlink; space stations such as the ISS; scientific satellites like the Hubble; Earth observation satellites from companies like Planet Labs, Umbra, and HawkEye 360; GPS; miniature CubeSats for education and research; and military/defense satellites.

Loading next visibility...
Identifier
62809, 2025-018D
Orbit
LEO
Country
Flag of USUS
Related business
Manufacturer
SpaceX/Seattle
Mission
Operational Commercial Communications
Bus & Motor
STARLINK V2M, Unknown motor
Mass
730 kg wet, ~700 kg dry
Launch date (UTC)
2025-01-24 (7 months ago)
Launch vehicle
FALCON 9
Launch site
Air Force Western Test Range (AFWTR)
Object type
Payload
Rocket body
Debris
Shape & HBR
Box + 2 Pan, 14.5 m
Radar Cross Section
33.884 m², Large (>1 m²)

Expand to show TLE details & history
Last TLE update: 17 hours ago

TLE from 17 hours ago
0 STARLINK-32787
1 62809U 25018D   25245.86773673  .00049940  00000-0  16849-2 0  9992
2 62809  53.1605 101.8968 0001178  73.5296 286.5834 15.30238943 34415
Epoch: 2025-09-02T20:49Z
TLE epoch observation values (Epoch: 2025-09-02T20:49:32.453Z)
Latitude
-0.00003°
Longitude
167.25875°
Altitude
475.768 km
Speed
7.629 km/s
True Right ascension
06h 47m 35s
True Declination
0° 00' 00"
Sunlit
Object was in daylight at epoch
Visualization orbit readout
Latitude
Unknown
Longitude
Unknown
Altitude
Unknown
Speed
Unknown
Apparent Right ascension
Unknown
Apparent Declination
Unknown
Sunlit
N/A
Visualization observer readout
Local Sidereal Time
05:29:42
Azimuth
Unknown
Elevation
Unknown
Doppler factor
Unknown
Orbital elements
Apogee altitude
476.162 km
Perigee altitude
474.548 km
Semi-major axis
6,853.492 km
Eccentricity
0.00012
Inclination
53.1605°
RAAN
101.8968°
Arg. of periapsis
73.5296°
True anomaly
286.57046°
Mean anomaly
286.5834°
Eccentric anomaly
286.57693°
Mean motion
3.82539 °/min
Orbital period
94.11 mins
BSTAR
0.0016849
Loading maneuver chart data...
Computing Atmospheric mass density...
Loading historical data...
Loading historical data...
Loading historical data...
Loading historical data...
Loading historical data...
Loading historical data...
Loading historical data...

Documentation

Showing up to 5 results
|